Location: Gwatt
(46.7204°N, 7.6223°E)
Time: 05:28:56
(UTC+00:00)

Tiros 1 despin weight - Pass Details

Date: 23 January 2021
Orbit: 593 x 642 km, 48.2° (Epoch: 06 March)

Event Time Altitude Azimuth Distance (km) Brightness Sun altitude
Rises 18:20:23 0° 285° (WNW) 2,857 ? -20.5°
Reaches altitude 10° 18:22:42 10° 284° (WNW) 1,945 ? -20.8°
Maximum altitude 18:27:09 82° 198° (SSW) 607 ? -21.6°
Enters shadow 18:27:52 62° 123° (ESE) 674 ? -21.7°
